Location: St. Louis
(38.6270°N, 90.1994°W)
Time: 12:29:05
(UTC-05:00)

Envisat - Visible Passes

Search period start: 07 October 2024 00:00
Search period end: 17 October 2024 00:00
Orbit: 762 x 764 km, 98.3° (Epoch: 07 October)

Date Brightness Start Highest point End Pass type
(mag) Time Alt. Az. Time Alt. Az. Time Alt. Az.
07 Oct 5.4 03:39:30 10° NNE 03:40:56 18° NE 03:40:56 18° NE visible
07 Oct 4.7 05:19:15 10° NNW 05:21:05 17° NW 05:21:05 17° NW visible
08 Oct 4.6 04:40:57 10° N 04:43:01 24° NNW 04:43:01 24° NNW visible
09 Oct 5.0 04:03:18 10° NNE 04:04:58 21° NNE 04:04:58 21° NNE visible
09 Oct 5.0 05:44:34 10° NW 05:45:07 11° NW 05:45:07 11° NW visible
10 Oct 5.8 03:26:16 10° NNE 03:26:55 13° NE 03:26:55 13° NE visible
10 Oct 4.8 05:05:23 10° N 05:07:04 18° NNW 05:07:04 18° NNW visible
11 Oct 4.9 04:27:21 10° N 04:29:00 21° N 04:29:00 21° N visible
12 Oct 5.4 03:49:54 10° NNE 03:50:56 16° NNE 03:50:56 16° NNE visible
12 Oct 5.0 05:30:13 10° NNW 05:31:05 13° NNW 05:31:05 13° NNW visible
13 Oct 4.9 04:51:37 10° N 04:53:01 18° NNW 04:53:01 18° NNW visible
14 Oct 5.2 04:13:48 10° NNE 04:14:57 17° N 04:14:57 17° N visible
15 Oct 5.8 03:36:33 10° NNE 03:36:53 12° NNE 03:36:53 12° NNE visible
15 Oct 5.1 05:16:11 10° NNW 05:17:01 13° NNW 05:17:01 13° NNW visible
16 Oct 5.1 04:37:55 10° N 04:38:57 16° N 04:38:57 16° N visible
